Regional Weather Roundup
Issued by NWS Little Rock, AR

Home | Current Version | Previous Version | Graphics & Text | Print | Product List | Glossary On
Versions: 1 2 3 4 5 6 7 8 9 10 11 12 13 14 15 16 17 18 19 20 21 22 23 24 25 26 27
000
ASUS44 KLZK 230505
RWRLZK

WEATHER ROUNDUP FOR ARKANSAS
NATIONAL WEATHER SERVICE LITTLE ROCK AR
1200 AM CDT WED APR 23 2014

NOTE: "FAIR" INDICATES FEW OR NO CLOUDS BELOW 12,000 FEET WITH NO
SIGNIFICANT WEATHER AND/OR OBSTRUCTIONS TO VISIBILITY.

ARZ001-003-010-029-230600-
NORTHWEST ARKANSAS

CITY           SKY/WX    TMP DP  RH WIND       PRES   REMARKS
FAYETTEVILLE   CLEAR     44  43  96 S3        30.01S
FORT SMITH     CLEAR     56  46  69 CALM      29.96S
HARRISON       PTCLDY    53  36  52 NW3       30.01S
BENTONVILLE    CLEAR     55  37  50 E8        30.00F
ROGERS         CLEAR     56  38  50 E7        30.01F
SILOAM SPGS    PTCLDY    55  37  50 CALM      30.01R
HIGHFILL       PTCLDY    54  39  57 E3        29.99F
$$

ARZ004-005-016-230600-
NORTH CENTRAL ARKANSAS

CITY           SKY/WX    TMP DP  RH WIND       PRES   REMARKS
BATESVILLE     CLEAR     55  41  58 NW3       29.97R
FLIPPIN        CLEAR     52  36  54 CALM      30.00R
MTN HOME       CLEAR     59  32  36 CALM      29.99R
$$

ARZ040-041-230600-
WEST CENTRAL ARKANSAS

CITY           SKY/WX    TMP DP  RH WIND       PRES   REMARKS
MENA           CLEAR     52  50  93 CALM      29.98S
MOUNT IDA      CLEAR     54  51  90 CALM      29.95S
$$

ARZ009-017-025-026-028-230600-
NORTHEAST ARKANSAS

CITY           SKY/WX    TMP DP  RH WIND       PRES   REMARKS
CORNING        FAIR      57  41  54 NE7       29.99R
JONESBORO      CLEAR     57  43  59 NE3       29.98R
NEWPORT        CLEAR     59  49  69 E10       29.98R
WALNUT RIDGE   CLEAR     55  43  62 NE7       29.98R
BLYTHEVILLE    CLEAR     53  43  68 NE6       29.98R
$$

ARZ022-023-033-042-044-230600-
CENTRAL ARKANSAS

CITY           SKY/WX    TMP DP  RH WIND       PRES   REMARKS
LITTLE ROCK    CLEAR     57  50  77 S5        29.97R
N LITTLE ROCK  CLEAR     63  43  49 NE5       29.97R
JACKSONVILLE   CLEAR     53  46  77 W2        29.97R
SEARCY         CLEAR     52  46  79 W5        29.98R
HOT SPRINGS    CLEAR     57  51  80 CALM      29.97R
RUSSELLVILLE   CLEAR     53  44  71 CALM      29.97S
CLINTON        FAIR      48  46  93 CALM      30.00R
$$

ARZ036-230600-
EAST ARKANSAS

CITY           SKY/WX    TMP DP  RH WIND       PRES   REMARKS
WEST MEMPHIS   HAZE      53  47  79 N3        29.95S VSB 1/4
$$

ARZ050-053-066-070-073-230600-
SOUTHWEST ARKANSAS

CITY           SKY/WX    TMP DP  RH WIND       PRES   REMARKS
ARKADELPHIA    FAIR      58  57  96 CALM      29.96S
CAMDEN         FOG       57  55  94 MISG      29.96R VSB 3/4
TEXARKANA      CLEAR     61  55  81 E5        29.95R
EL DORADO      CLEAR     59  57  93 CALM      29.96R
DE QUEEN       CLEAR     56  53  90 NE3       29.94S
$$

ARZ056-057-069-230600-
SOUTHEAST ARKANSAS

CITY           SKY/WX    TMP DP  RH WIND       PRES   REMARKS
PINE BLUFF     CLEAR     57  52  83 CALM      29.97R
STUTTGART      CLEAR     61  50  67 CALM      29.97R
MONTICELLO     CLEAR     55  52  89 CALM      29.96R

$$





USA.gov is the U.S. government's official web portal to all federal, state and local government web resources and services.